Showing default

PROMETHEUS 2-1, 41854

Orbit data source: Space-Track

PROMETHEUS 2-1, 41854 is a payload satellite owned by SOCOM (US) in SSO that was launched on Fri, 11 Nov 2016 UTC via an ATLAS V 401 launch vehicle from the Air Force Western Test Range (AFWTR). Payload-class satellites include a variety of spacecraft equipped with specific instruments for various scientific and technological missions. These include communications satellites like Starlink; space stations such as the ISS; scientific satellites like the Hubble; Earth observation satellites from companies like Planet Labs, Umbra, and HawkEye 360; GPS; miniature CubeSats for education and research; and military/defense satellites.

Not visible in the next 10 days
Identifier
41854, 2016-067G
Orbit
SSO
Country
Flag of USUS
Related business
Manufacturer
LANL
Mission
Operational Defense Communications
Bus & Motor
CUBESAT 1.5U, Unknown motor
Mass
2 kg wet, 2 kg dry
Launch date (UTC)
2016-11-11 (9 years ago)
Launch vehicle
ATLAS V 401
Launch site
Air Force Western Test Range (AFWTR)
Object type
Payload
Rocket body
Debris
Shape & HBR
Box + 2 Pan, 0.1 m
Radar Cross Section
0.015 m², Small (<0.1 m²)

Expand to show TLE details & history
Last TLE update: 10 hours ago

TLE from 10 hours ago
0 PROMETHEUS 2-1
1 41854U 16067G   25294.74653382  .00204834  00000-0  16185-2 0  9996
2 41854  98.0484 165.3571 0006838 108.0644 252.1362 15.70725638491271
Epoch: 2025-10-21T17:55Z
TLE epoch observation values (Epoch: 2025-10-21T17:55:00.522Z)
Latitude
Longitude
-133.82514°
Altitude
361.377 km
Speed
7.692 km/s
True Right ascension
11h 01m 25s
True Declination
0° 00' 00"
Sunlit
Object was in daylight at epoch
Visualization orbit readout
Latitude
Unknown
Longitude
Unknown
Altitude
Unknown
Speed
Unknown
Apparent Right ascension
Unknown
Apparent Declination
Unknown
Sunlit
N/A
Visualization observer readout
Local Sidereal Time
22:54:26
Azimuth
Unknown
Elevation
Unknown
Doppler factor
Unknown
Orbital elements
Apogee altitude
358.353 km
Perigee altitude
349.147 km
Semi-major axis
6,731.887 km
Eccentricity
0.00068
Inclination
98.0484°
RAAN
165.3571°
Arg. of periapsis
108.0644°
True anomaly
252.06164°
Mean anomaly
252.1362°
Eccentric anomaly
252.09892°
Mean motion
3.92951 °/min
Orbital period
91.61 mins
BSTAR
0.0016185
Loading maneuver chart data...
Computing Atmospheric mass density...
Loading historical data...
Loading historical data...
Loading historical data...
Loading historical data...
Loading historical data...
Loading historical data...
Loading historical data...

Documentation

Showing up to 5 results
|